This is the latest recevied weather packets stored in our database for station/object FW0690. If no packets are shown the sender has not sent any weather packets the latest 10 day(s).
| Time | Temp. | Humidity | Pressure | Rain* | Wind** | Luminosity | Snow |
|---|---|---|---|---|---|---|---|
| 1777534352 | 5.56° C | 73% | 1021.5 hPa | - | - | 16 W/m² | - |
| 1777533992 | 5.56° C | 73% | 1021.3 hPa | - | - | 16 W/m² | - |
| 1777533632 | 5.56° C | 73% | 1021.4 hPa | - | - | 15 W/m² | - |
| 1777533271 | 5.56° C | 72% | 1021.4 hPa | - | - | 13 W/m² | - |
| 1777532912 | 5.56° C | 72% | 1021.4 hPa | - | - | 11 W/m² | - |
| 1777532552 | 5.56° C | 72% | 1021.4 hPa | - | - | 11 W/m² | - |
| 1777532192 | 5.56° C | 72% | 1021.2 hPa | - | - | 8 W/m² | - |
| 1777531831 | 5.56° C | 72% | 1021.4 hPa | - | - | 9 W/m² | - |
| 1777531472 | 5.56° C | 72% | 1021.3 hPa | - | - | 9 W/m² | - |
| 1777531111 | 5.56° C | 72% | 1021.3 hPa | - | - | 8 W/m² | - |
| 1777530752 | 5.56° C | 72% | 1021.4 hPa | - | - | 8 W/m² | - |
| 1777530392 | 5.56° C | 72% | 1021.3 hPa | - | - | 8 W/m² | - |
| 1777530032 | 5.56° C | 72% | 1021.3 hPa | - | - | 6 W/m² | - |
| 1777529672 | 5.56° C | 72% | 1021.2 hPa | - | - | 6 W/m² | - |
| 1777529311 | 5.56° C | 71% | 1021.2 hPa | - | - | 6 W/m² | - |
| 1777528951 | 5.56° C | 71% | 1021.2 hPa | - | - | 4 W/m² | - |
| 1777528592 | 5.56° C | 71% | 1021.2 hPa | - | - | 6 W/m² | - |
| 1777528231 | 5.56° C | 71% | 1021.1 hPa | - | - | 6 W/m² | - |
| 1777527871 | 5.56° C | 71% | 1021.2 hPa | - | - | 5 W/m² | - |
| 1777527511 | 5.56° C | 70% | 1021.2 hPa | - | - | 4 W/m² | - |
| 1777527151 | 5.56° C | 70% | 1021.1 hPa | - | - | 5 W/m² | - |
| 1777526791 | 5.56° C | 70% | 1021 hPa | - | - | 5 W/m² | - |
| 1777526431 | 5.56° C | 70% | 1020.9 hPa | - | - | 5 W/m² | - |
| 1777526072 | 5.56° C | 69% | 1020.9 hPa | - | - | 4 W/m² | - |
| 1777525712 | 5.56° C | 69% | 1020.9 hPa | - | - | 4 W/m² | - |
* Rain since midnight (hover to see other rain measurements)
** Current wind speed in m/s (hover to see current wind gust speed)